Location: Casilda
(33.0440°S, 61.1680°W)
Time: 20:19:39
(UTC-03:00)

ISS - Pass Details

Date: 27 January 2021
Orbit: 417 x 422 km, 51.6° (Epoch: 26 February)

Event Time Altitude Azimuth Distance (km) Brightness Sun altitude
Exits shadow 05:21:17 - 249° (WSW) 1,587 -1.2 -12.4°
Reaches altitude 10° 05:21:35 10° 245° (WSW) 1,519 -1.2 -12.3°
Maximum altitude 05:23:31 14° 211° (SSW) 1,286 -1.3 -12.0°
Drops below altitude 10° 05:25:28 10° 176° (S) 1,525 -0.4 -11.6°
Sets 05:28:21 0° 150° (SSE) 2,394 1.3 -11.1°
